Simultaneous Nadir Overpasses (SNOs) Predictions

Prediction of SNOs between GOES-17 and METOP-C Satellite Orbit:

Table of predicted SNOs for the next 14.0 days since TLE Epoch: 10/10/2020
Index Date Time (GOES-17) GOES-17 Lat,Lon METOP-C Lat,Lon Distance(km) Time Diff (sec)
1 10/10/2020 18:36:19 -0.05,-137.20 -0.30,-135.98 138.17 80
2 10/12/2020 06:52:41 0.04,-137.18 -0.70,-140.58 387.94 80
3 10/13/2020 06:34:43 0.04,-137.17 0.41,-135.59 180.22 80
4 10/14/2020 18:50:55 -0.04,-137.16 0.64,-140.15 340.04 80
5 10/15/2020 18:32:56 -0.04,-137.15 -0.48,-135.15 227.76 80
6 10/17/2020 06:49:18 0.04,-137.12 -0.57,-139.75 299.30 80
7 10/18/2020 06:31:19 0.04,-137.11 0.55,-134.75 268.10 80
8 10/19/2020 18:47:33 -0.04,-137.09 0.46,-139.32 253.59 80
9 10/20/2020 18:29:34 -0.04,-137.07 -0.66,-134.33 313.31 80
10 10/22/2020 06:45:55 0.03,-137.03 -0.38,-138.92 214.92 80
11 10/23/2020 06:27:57 0.03,-137.01 0.74,-133.93 351.71 80
